Home > Weather > Bucaramanga > Past weeks

Flag for Colombia Weather for the Past 2 Weeks in Bucaramanga, Colombia

Now
77 °F

Scattered clouds.


Feels Like: 79 °F
Forecast: 69 / 86 °F
Wind: 3 mph from North

Location: Bucaramanga / Palonegro

Current Time: Feb 7, 2016 at 10:43:51 AM

Latest Report: Feb 7, 2016 at 10:00 AM


Visibility: N/A

Pressure: 30.02 "Hg (26.90 "Hg at 956m altitude)

Humidity: 69%

Dew point: 66 °F

Location of BucaramangaLocation

Historic Weather in Bucaramanga — Graph

°F

Bucaramanga Temperature Yesterday

Maximum temperature yesterday: 82 °F (at 3:00 PM)
Minimum temperature yesterday: 68 °F (at 6:00 AM)
Average temperature yesterday: 76 °F

High & Low Weather Summary for the Past Weeks

 TemperatureHumidityPressure
High84 °F (Jan 27, 1:00 PM)100% (Jan 24, 6:00 AM)30.10 "Hg (Jan 24, 6:00 AM)
Low66 °F (Jan 24, 6:00 AM)51% (Jan 27, 2:00 PM)29.89 "Hg (Jan 27, 4:00 PM)
Average74 °F77%30.00 "Hg
* Reported Jan 23 9:00 AM — Feb 7 9:00 AM, Bucaramanga, Weather by CustomWeather, © 2016

Note: Actual official high and low records may vary slightly from our data, if they occured in-between our weather recording intervals... More about our weather records

Advertising

Bucaramanga Weather History for the Previous 24 Hours

 ConditionsComfort  
Time TempWeatherWind HumidityBarometerVisibility
9:00 AM
Sun, Feb 7
77 °FScattered clouds.2 mph69%30.02 "HgN/A
8:00 AM72 °FScattered clouds.2 mph78%30.01 "HgN/A
7:00 AM70 °FScattered clouds.2 mph78%29.99 "HgN/A
6:00 AM70 °FPassing clouds.2 mph78%29.98 "HgN/A
11:00 PM
Sat, Feb 6
73 °FPassing clouds.No wind78%30.01 "HgN/A
10:00 PM73 °FPassing clouds.No wind78%30.01 "HgN/A
9:00 PM72 °FPassing clouds.2 mph83%30.00 "HgN/A
8:00 PM73 °FPassing clouds.2 mph78%29.97 "HgN/A
7:00 PM75 °FPassing clouds.6 mph74%29.94 "HgN/A
6:00 PM75 °FPassing clouds.6 mph74%29.93 "HgN/A
5:00 PM79 °FPassing clouds.7 mph65%29.91 "HgN/A
4:00 PM81 °FScattered clouds.8 mph66%29.90 "HgN/A
3:00 PM82 °FScattered clouds.8 mph58%29.91 "HgN/A
2:00 PM81 °FScattered clouds.6 mph66%29.94 "HgN/A
1:00 PM81 °FScattered clouds.9 mph66%29.97 "HgN/A
12:00 PM79 °FScattered clouds.8 mph65%30.00 "HgN/A
11:00 AM79 °FScattered clouds.5 mph61%30.02 "Hg5 mi
10:00 AM79 °FHaze.8 mph65%30.04 "Hg3 mi
Weather by CustomWeather, © 2016

See weather overviewHow to use our weather pages